1513854000.34,22280,6.13,73628.5,-4.09,-29.13,-25.19,0,*51
1513854001.55,22281,6.13,73628.8,-4.09,-29.07,-25.19,0,*55
1513854002.79,22282,6.13,73630.8,-4.09,-28.91,-24.93,0,*5B
1513854004.05,22283,6.13,73630.5,-4.09,-28.75,-25.03,0,*58
1513854005.29,22284,6.13,73632.0,-4.09,-28.63,-24.93,0,*50
1513854006.53,22285,6.13,73626.5,-4.05,-28.69,-24.87,0,*52
1513854007.77,22286,6.13,73628.8,-4.05,-28.91,-24.97,0,*57
1513854009.02,22287,6.13,73628.5,-4.05,-28.69,-24.87,0,*50
1513854010.26,22288,6.13,73626.0,-4.05,-28.69,-24.87,0,*5F
1513854011.48,22289,6.13,73626.3,-4.03,-28.85,-25.09,0,*5D
1513854012.74,22290,6.13,73624.8,-4.05,-28.75,-25.03,0,*56
1513854013.97,22291,6.13,73628.5,-4.05,-28.85,-25.13,0,*59
1513854015.21,22292,6.13,73630.3,-4.05,-28.69,-25.03,0,*59
1513854016.43,22293,6.13,73630.0,-4.05,-28.85,-25.19,0,*51
1513854017.64,22294,6.13,73634.8,-4.05,-28.69,-24.97,0,*53
1513854018.86,22295,6.13,73630.3,-4.03,-28.53,-24.93,0,*59
1513854020.13,22296,6.13,73628.8,-4.01,-28.63,-25.09,0,*59
1513854021.38,22297,6.13,73628.3,-4.01,-28.47,-24.93,0,*5C
1513854022.62,22298,6.13,73628.0,-4.01,-28.31,-24.77,0,*58
1513854023.87,22299,6.13,73630.3,-3.99,-28.25,-24.77,0,*5A
1513854025.15,22300,6.13,73630.5,-4.01,-28.43,-24.83,0,*56
1513854026.42,22301,6.13,73628.0,-3.97,-28.37,-24.87,0,*58
1513854027.69,22302,6.13,73628.0,-3.97,-28.63,-25.23,0,*55
1513854028.93,22303,6.13,73634.5,-3.99,-28.43,-24.93,0,*52
1513854030.17,22304,6.13,73636.0,-3.97,-28.37,-24.93,0,*58
1513854031.41,22305,6.13,73628.3,-3.95,-28.37,-24.87,0,*5E
1513854032.64,22306,6.13,73628.5,-3.95,-28.59,-25.23,0,*5A
1513854033.86,22307,6.13,73634.0,-3.95,-28.69,-25.35,0,*5F
1513854035.07,22308,6.13,73628.8,-3.95,-28.53,-25.19,0,*57
1513854036.31,22309,6.13,73628.5,-3.95,-28.37,-25.03,0,*5F
1513854037.57,22310,6.13,73628.8,-3.93,-28.37,-25.03,0,*51
1513854038.84,22311,6.13,73634.0,-3.93,-28.37,-25.03,0,*50
1513854040.1,22312,6.13,73630.5,-3.93,-28.43,-25.35,0,*55
1513854041.33,22313,6.13,73630.0,-3.93,-28.31,-25.19,0,*5F
1513854042.57,22314,6.13,73634.8,-3.91,-28.25,-25.13,0,*55
1513854043.78,22315,6.13,73628.8,-3.91,-28.15,-25.09,0,*5C
1513854045.02,22316,6.13,73628.0,-3.89,-28.37,-25.13,0,*5D
1513854046.23,22317,6.13,73632.3,-3.87,-28.31,-25.23,0,*57
1513854047.44,22318,6.13,73630.5,-3.83,-28.15,-25.19,0,*53
1513854048.67,22319,6.13,73628.0,-3.87,-28.09,-25.13,0,*51
1513854049.91,22320,6.13,73628.3,-3.87,-28.31,-25.29,0,*59
1513854051.14,22321,6.13,73634.0,-3.83,-28.21,-25.23,0,*57
1513854052.38,22322,6.13,73630.5,-3.83,-28.25,-25.35,0,*57
1513854053.67,22323,6.13,73626.8,-3.81,-28.43,-25.55,0,*52
1513854054.96,22324,6.13,73630.8,-3.81,-28.43,-25.55,0,*55
1513854056.2,22325,6.13,73628.8,-3.83,-28.37,-25.55,0,*55
1513854057.44,22326,6.13,73632.3,-3.83,-28.43,-25.65,0,*56
1513854058.68,22327,6.13,73628.0,-3.81,-28.37,-25.65,0,*56
1513854059.98,22328,6.13,73628.8,-3.81,-28.25,-25.55,0,*59
1513854061.22,22329,6.13,73630.8,-3.81,-28.37,-25.65,0,*58
1513854062.46,22330,6.13,73632.8,-3.79,-28.63,-26.03,0,*55
1513854063.71,22331,6.13,73630.8,-3.79,-28.47,-25.81,0,*5B
1513854064.95,22332,6.13,73626.5,-3.79,-28.37,-25.81,0,*5F
1513854066.2,22333,6.13,73628.8,-3.77,-28.47,-25.91,0,*56
1513854067.43,22334,6.13,73630.5,-3.79,-28.31,-25.81,0,*5F
1513854068.69,22335,6.13,73630.0,-3.77,-28.37,-25.97,0,*51
1513854069.95,22336,6.13,73628.3,-3.77,-28.47,-26.03,0,*5B
1513854071.18,22337,6.13,73630.5,-3.77,-28.31,-25.91,0,*53
1513854072.47,22338,6.13,73628.8,-3.77,-28.21,-25.97,0,*5B
1513854073.75,22339,6.13,73628.5,-3.77,-28.47,-26.29,0,*5C
1513854074.99,22340,6.13,73628.0,-3.77,-28.37,-26.03,0,*5D
1513854076.25,22341,6.13,73628.8,-3.75,-28.43,-26.29,0,*55
1513854077.51,22342,6.13,73628.3,-3.73,-28.15,-25.97,0,*55
1513854078.75,22343,6.13,73628.0,-3.75,-28.31,-26.29,0,*52
1513854080.04,22344,6.13,73628.5,-3.73,-28.43,-26.29,0,*56
1513854081.29,22345,6.13,73626.5,-3.73,-28.47,-26.45,0,*59
1513854082.55,22346,6.13,73628.5,-3.73,-28.47,-26.61,0,*5C
1513854083.78,22347,6.13,73624.5,-3.75,-28.47,-26.61,0,*5B
1513854085.05,22348,6.13,73626.8,-3.73,-28.91,-27.03,0,*5C
1513854086.32,22349,6.13,73624.8,-3.73,-28.91,-27.03,0,*5D
1513854087.61,22350,6.13,73624.3,-3.73,-28.75,-26.93,0,*57
1513854088.89,22351,6.13,73632.0,-3.73,-28.63,-26.71,0,*5D
1513854090.16,22352,6.13,73628.5,-3.73,-28.63,-26.87,0,*57
1513854091.39,22353,6.13,73628.5,-3.75,-28.79,-27.07,0,*52
1513854092.65,22354,6.13,73626.5,-3.73,-28.75,-27.07,0,*5F
1513854093.91,22355,6.13,73626.0,-3.75,-29.29,-27.61,0,*50
1513854095.19,22356,6.13,73630.0,-3.73,-29.13,-27.45,0,*5A
1513854096.48,22357,6.13,73624.0,-3.73,-29.13,-27.45,0,*5B
1513854097.73,22358,6.13,73630.8,-3.75,-28.75,-27.23,0,*53
1513854099.0,22359,6.13,73626.5,-3.73,-28.63,-27.13,0,*50
1513854100.2,22360,6.13,73626.0,-3.75,-29.07,-27.55,0,*5D
1513854101.47,22361,6.13,73624.8,-3.73,-28.75,-27.29,0,*55
1513854102.73,22362,6.13,73624.5,-3.75,-29.13,-27.61,0,*5D
1513854103.99,22363,6.19,73630.0,-3.75,-29.13,-27.61,0,*5C
1513854105.25,22364,6.13,73626.5,-3.75,-29.29,-28.05,0,*5F
1513854106.45,22365,6.13,73628.3,-3.75,-29.07,-27.77,0,*58
1513854107.66,22366,6.13,73630.5,-3.75,-28.97,-27.77,0,*53
1513854108.87,22367,6.13,73624.8,-3.75,-29.07,-27.71,0,*5C
1513854110.11,22368,6.13,73624.3,-3.75,-28.91,-27.71,0,*5D
1513854111.32,22369,6.13,73626.5,-3.75,-29.07,-27.93,0,*5E
1513854112.58,22370,6.13,73626.0,-3.75,-28.79,-27.61,0,*53
1513854113.81,22371,6.13,73630.0,-3.75,-28.91,-27.77,0,*53
1513854115.04,22372,6.13,73630.0,-3.75,-29.13,-27.93,0,*51
1513854116.31,22373,6.13,73628.5,-3.75,-29.35,-28.47,0,*52
1513854117.6,22374,6.13,73626.3,-3.73,-29.51,-28.59,0,*5E
1513854118.87,22375,6.13,73630.3,-3.77,-29.67,-28.63,0,*57
1513854120.11,22376,6.13,73628.5,-3.77,-29.83,-28.85,0,*56
1513854121.34,22377,6.13,73632.5,-3.77,-29.67,-28.69,0,*5F
1513854122.58,22378,6.13,73628.5,-3.77,-29.67,-28.85,0,*52
1513854123.84,22379,6.13,73628.8,-3.79,-29.89,-29.17,0,*57
1513854125.1,22380,6.13,73632.5,-3.79,-29.89,-29.17,0,*51
1513854126.31,22381,6.13,73630.8,-3.79,-29.83,-28.97,0,*53
1513854127.54,22382,6.13,73628.0,-3.79,-29.67,-28.79,0,*5A
1513854128.74,22383,6.13,73632.0,-3.83,-29.79,-29.07,0,*59
1513854130.02,22384,6.13,73628.0,-3.81,-30.05,-29.39,0,*52
1513854131.25,22385,6.13,73624.8,-3.83,-30.05,-29.45,0,*5A
1513854132.48,22386,6.13,73628.8,-3.83,-30.05,-29.45,0,*59
1513854133.68,22387,6.13,73630.5,-3.83,-29.95,-29.23,0,*59
1513854134.97,22388,6.13,73630.5,-3.89,-30.01,-29.35,0,*5E
1513854136.19,22389,6.13,73630.0,-3.87,-30.27,-29.67,0,*52
1513854137.43,22390,6.13,73628.8,-3.91,-30.39,-29.73,0,*57
1513854138.67,22391,6.13,73628.5,-3.89,-30.23,-29.67,0,*51
1513854139.88,22392,6.13,73628.8,-3.87,-30.27,-29.83,0,*52
1513854141.17,22393,6.13,73632.0,-3.89,-30.51,-29.89,0,*56
1513854142.43,22394,6.13,73630.3,-3.93,-30.27,-29.73,0,*5E
1513854143.67,22395,6.13,73628.0,-3.91,-30.17,-29.67,0,*5B
1513854144.9,22396,6.13,73624.0,-3.93,-30.23,-29.61,0,*5B
1513854146.12,22397,6.13,73624.3,-3.91,-30.23,-29.73,0,*5B
1513854147.35,22398,6.13,73620.8,-3.93,-30.23,-29.79,0,*5C
1513854148.58,22399,6.13,73626.0,-3.93,-30.45,-29.95,0,*5F
1513854149.84,22400,6.13,73622.5,-3.97,-30.61,-30.11,0,*5E
1513854151.1,22401,6.13,73624.5,-3.97,-30.45,-30.01,0,*58
1513854152.34,22402,6.13,73624.0,-3.97,-30.45,-29.83,0,*59
1513854153.58,22403,6.13,73626.5,-3.97,-30.11,-29.67,0,*53
1513854154.83,22404,6.13,73626.3,-3.97,-29.95,-29.57,0,*53
1513854156.07,22405,6.13,73622.3,-3.97,-29.83,-29.61,0,*50
1513854157.32,22406,6.13,73624.5,-3.97,-30.27,-29.95,0,*5E
1513854158.56,22407,6.13,73626.5,-3.97,-29.95,-29.67,0,*53
1513854159.81,22408,6.13,73630.3,-3.97,-29.83,-29.45,0,*5B
1513854161.05,22409,6.13,73622.0,-3.99,-30.17,-29.67,0,*51
1513854162.29,22410,6.13,73622.3,-3.99,-30.01,-29.79,0,*51
1513854163.55,22411,6.13,73618.8,-4.01,-29.89,-29.61,0,*57
1513854164.79,22412,6.13,73626.0,-3.99,-29.61,-29.39,0,*59
1513854166.06,22413,6.13,73626.5,-4.01,-29.83,-29.51,0,*5C
1513854167.33,22414,6.13,73620.5,-4.01,-30.01,-29.67,0,*5C
1513854168.57,22415,6.13,73624.8,-3.99,-29.67,-29.39,0,*58
1513854169.83,22416,6.19,73628.5,-3.97,-29.57,-29.29,0,*57
1513854171.08,22417,6.13,73622.3,-3.99,-29.61,-29.51,0,*52
1513854172.32,22418,6.13,73622.0,-3.97,-29.83,-29.45,0,*5A
1513854173.59,22419,6.13,73624.8,-4.01,-29.35,-28.97,0,*50
1513854174.86,22420,6.13,73624.5,-3.95,-29.39,-29.01,0,*52
1513854176.07,22421,6.19,73630.8,-3.95,-29.57,-29.23,0,*5B
1513854177.31,22422,6.13,73628.8,-3.97,-29.57,-28.97,0,*54
1513854178.55,22423,6.13,73630.5,-3.97,-29.45,-29.07,0,*5E
1513854179.82,22424,6.19,73638.0,-3.95,-29.35,-28.91,0,*52
1513854181.09,22425,6.19,73632.0,-3.97,-29.57,-29.13,0,*5E
1513854182.3,22426,6.13,73624.5,-3.95,-29.95,-29.61,0,*54
1513854183.58,22427,6.13,73622.8,-3.93,-29.73,-29.35,0,*5A
1513854184.8,22428,6.13,73622.5,-3.95,-29.79,-29.57,0,*5D
1513854186.01,22429,6.13,73622.0,-3.95,-29.95,-29.61,0,*5B
1513854187.25,22430,6.13,73622.8,-3.95,-29.79,-29.51,0,*52
1513854188.48,22431,6.19,73624.3,-3.95,-30.05,-29.79,0,*5A
1513854189.68,22432,6.13,73620.3,-3.95,-30.23,-29.79,0,*5D
1513854190.88,22433,6.13,73626.5,-3.95,-30.11,-29.79,0,*5D
1513854192.12,22434,6.13,73624.0,-3.95,-30.23,-29.89,0,*54
1513854193.32,22435,6.13,73622.8,-3.95,-30.23,-29.79,0,*5A
1513854194.58,22436,6.13,73618.8,-3.95,-30.05,-29.73,0,*57
1513854195.83,22437,6.13,73620.3,-3.93,-30.55,-30.27,0,*5C
1513854197.06,22438,6.13,73626.8,-3.95,-30.45,-30.05,0,*54
1513854198.32,22439,6.13,73626.3,-3.97,-30.51,-30.11,0,*57
1513854199.58,22440,6.13,73626.3,-3.97,-30.61,-30.27,0,*5F
1513854200.84,22441,6.13,73626.5,-3.97,-30.51,-30.11,0,*58
1513854202.07,22442,6.19,73630.8,-3.95,-30.45,-30.05,0,*59
1513854203.33,22443,6.13,73624.8,-3.95,-30.39,-29.89,0,*5F
1513854204.56,22444,6.19,73626.5,-3.97,-30.45,-30.11,0,*58
1513854205.85,22445,6.13,73626.3,-3.97,-30.51,-30.17,0,*5A
1513854207.11,22446,6.13,73630.0,-3.97,-30.61,-30.11,0,*5C
1513854208.37,22447,6.19,73628.3,-3.95,-30.61,-30.05,0,*5A
1513854209.64,22448,6.13,73628.3,-3.97,-30.83,-30.51,0,*5A
1513854210.88,22449,6.13,73628.8,-3.97,-30.67,-30.27,0,*50
1513854212.13,22450,6.13,73630.3,-3.97,-30.83,-30.33,0,*57
1513854213.38,22451,6.13,73630.8,-3.97,-30.83,-30.33,0,*56
1513854214.61,22452,6.19,73630.0,-3.99,-30.51,-30.11,0,*54
1513854215.83,22453,6.19,73626.3,-3.99,-31.01,-30.45,0,*50
1513854217.04,22454,6.19,73628.3,-3.99,-31.01,-30.45,0,*57
1513854218.31,22455,6.19,73624.3,-4.01,-30.89,-30.33,0,*50
1513854219.57,22456,6.19,73624.5,-4.01,-30.67,-30.05,0,*56
1513854220.85,22457,6.13,73624.0,-4.01,-30.55,-30.05,0,*56
1513854222.14,22458,6.13,73624.8,-4.01,-30.73,-30.05,0,*5D
1513854223.43,22459,6.19,73626.5,-4.01,-30.73,-30.17,0,*5F
1513854224.69,22460,6.19,73624.5,-4.01,-30.89,-30.23,0,*57
1513854225.95,22461,6.13,73622.3,-4.01,-30.77,-30.23,0,*57
1513854227.22,22462,6.13,73622.8,-4.03,-30.77,-30.05,0,*52
1513854228.46,22463,6.19,73626.8,-4.03,-30.67,-30.01,0,*56
1513854229.71,22464,6.13,73624.5,-4.03,-30.55,-30.05,0,*54
1513854230.94,22465,6.13,73620.5,-3.99,-30.51,-29.79,0,*56
1513854232.2,22466,6.13,73616.3,-4.01,-30.95,-30.23,0,*5C
1513854233.49,22467,6.19,73620.5,-4.01,-30.77,-30.05,0,*55
1513854234.7,22468,6.19,73622.3,-4.03,-31.05,-30.33,0,*59
1513854235.95,22469,6.19,73624.0,-4.05,-31.33,-30.61,0,*5C
1513854237.23,22470,6.19,73622.3,-4.05,-31.61,-30.77,0,*54
1513854238.5,22471,6.13,73620.0,-4.05,-31.51,-30.77,0,*56
1513854239.77,22472,6.13,73622.0,-4.05,-31.61,-30.95,0,*5A
1513854241.04,22473,6.13,73618.5,-4.09,-31.39,-30.61,0,*51
1513854242.28,22474,6.19,73622.3,-4.09,-31.57,-30.83,0,*52
1513854243.53,22475,6.19,73622.8,-4.11,-31.67,-30.83,0,*59
1513854244.8,22476,6.19,73620.0,-4.11,-31.67,-30.77,0,*51
1513854246.08,22477,6.13,73616.3,-4.11,-31.39,-30.51,0,*5F
1513854247.37,22478,6.13,73622.0,-4.11,-31.39,-30.61,0,*53
1513854248.66,22479,6.19,73620.8,-4.11,-31.51,-30.61,0,*5C
1513854249.95,22480,6.13,73618.8,-4.11,-31.39,-30.51,0,*57
1513854251.2,22481,6.19,73624.3,-4.13,-31.73,-30.83,0,*55
1513854252.42,22482,6.19,73628.3,-4.13,-31.17,-30.23,0,*5E
1513854253.66,22483,6.19,73626.8,-4.13,-31.01,-30.17,0,*5F
1513854254.96,22484,6.19,73620.8,-4.15,-31.11,-30.17,0,*5F
1513854256.18,22485,6.13,73622.3,-4.13,-31.17,-30.27,0,*5D
1513854257.45,22486,6.19,73622.8,-4.15,-31.23,-30.33,0,*5A
1513854258.72,22487,6.19,73624.5,-4.15,-31.11,-30.23,0,*5B
1513854259.98,22488,6.13,73626.0,-4.15,-31.05,-30.05,0,*55
1513854261.25,22489,6.13,73624.8,-4.15,-31.23,-30.23,0,*54
1513854262.52,22490,6.13,73622.3,-4.15,-31.45,-30.39,0,*57
1513854263.76,22491,6.13,73620.0,-4.17,-31.23,-30.23,0,*5F
1513854265.0,22492,6.19,73620.3,-4.17,-31.05,-30.01,0,*58
1513854266.25,22493,6.19,73622.5,-4.17,-31.05,-30.17,0,*5E
1513854267.55,22494,6.19,73622.8,-4.15,-31.11,-30.17,0,*5E
1513854268.79,22495,6.19,73624.3,-4.17,-31.23,-30.23,0,*5B
1513854270.06,22496,6.19,73624.3,-4.15,-31.45,-30.51,0,*5F
1513854271.31,22497,6.19,73622.5,-4.17,-31.45,-30.55,0,*58
1513854272.53,22498,6.19,73626.3,-4.17,-31.45,-30.33,0,*57
1513854273.8,22499,6.19,73624.5,-4.17,-31.61,-30.55,0,*50
1513854275.07,22500,6.19,73622.5,-4.19,-31.79,-30.61,0,*51
1513854276.37,22501,6.19,73620.8,-4.19,-31.85,-30.73,0,*50
1513854277.65,22502,6.13,73618.0,-4.21,-31.73,-30.77,0,*55
1513854278.92,22503,6.19,73622.0,-4.23,-31.91,-30.67,0,*5B
1513854280.2,22504,6.19,73622.5,-4.21,-31.91,-30.77,0,*5F
1513854281.44,22505,6.19,73622.8,-4.23,-32.01,-31.01,0,*56
1513854282.71,22506,6.19,73620.5,-4.23,-32.07,-31.17,0,*54
1513854283.92,22507,6.19,73620.3,-4.21,-32.23,-31.33,0,*57
1513854285.23,22508,6.19,73622.3,-4.27,-32.07,-30.89,0,*58
1513854286.53,22509,6.13,73618.3,-4.27,-32.07,-30.89,0,*59
1513854287.8,22510,6.19,73620.3,-4.25,-31.95,-30.73,0,*5E
1513854289.1,22511,6.19,73620.5,-4.27,-31.95,-30.73,0,*5D
1513854290.34,22512,6.19,73622.5,-4.27,-32.35,-31.29,0,*59
1513854291.58,22513,6.13,73618.8,-4.29,-32.57,-31.51,0,*5D
1513854292.85,22514,6.19,73620.3,-4.29,-32.19,-31.11,0,*54
1513854294.09,22515,6.19,73620.0,-4.33,-32.85,-31.79,0,*55
1513854295.36,22516,6.13,73618.3,-4.33,-32.75,-31.61,0,*50
1513854296.61,22517,6.19,73618.3,-4.35,-32.01,-30.67,0,*53
1513854297.88,22518,6.19,73622.3,-4.37,-32.07,-30.77,0,*59
1513854299.14,22519,6.13,73618.5,-4.37,-31.91,-30.61,0,*53
1513854300.39,22520,6.19,73620.0,-4.37,-31.85,-30.51,0,*5F
1513854301.69,22521,6.19,73622.8,-4.35,-32.07,-30.77,0,*51
1513854302.91,22522,6.19,73622.8,-4.39,-32.35,-31.17,0,*58
1513854304.16,22523,6.19,73622.5,-4.39,-32.29,-31.05,0,*57
1513854305.41,22524,6.19,73622.8,-4.41,-32.45,-31.23,0,*51
1513854306.65,22525,6.19,73622.0,-4.41,-32.63,-31.45,0,*54
1513854307.93,22526,6.19,73626.0,-4.43,-32.75,-31.61,0,*54
1513854309.19,22527,6.13,73618.8,-4.43,-32.57,-31.51,0,*56
1513854310.42,22528,6.19,73624.0,-4.45,-32.45,-31.17,0,*5E
1513854311.67,22529,6.13,73620.3,-4.45,-32.63,-31.57,0,*5F
1513854312.9,22530,6.19,73626.5,-4.45,-32.57,-31.11,0,*52
1513854314.13,22531,6.19,73620.3,-4.47,-32.39,-31.01,0,*58
1513854315.36,22532,6.19,73622.3,-4.47,-32.35,-30.83,0,*5C
1513854316.58,22533,6.19,73624.3,-4.47,-32.23,-31.17,0,*56
1513854317.8,22534,6.19,73624.0,-4.49,-32.29,-31.05,0,*56
1513854319.0,22535,6.19,73626.3,-4.49,-32.51,-31.33,0,*5D
1513854320.23,22536,6.19,73620.5,-4.51,-32.39,-31.05,0,*5C
1513854321.52,22537,6.19,73626.5,-4.51,-31.91,-30.61,0,*5F
1513854322.81,22538,6.19,73624.8,-4.51,-32.07,-30.73,0,*5F
1513854324.09,22539,6.19,73626.0,-4.55,-32.19,-30.77,0,*51
1513854325.37,22540,6.19,73622.5,-4.55,-31.61,-30.17,0,*55
1513854326.64,22541,6.19,73624.0,-4.55,-32.01,-30.73,0,*53
1513854327.86,22542,6.19,73630.5,-4.55,-31.67,-30.23,0,*56
1513854329.11,22543,6.19,73626.5,-4.51,-31.39,-29.95,0,*5D
1513854330.37,22544,6.19,73624.3,-4.55,-31.45,-30.17,0,*57
1513854331.62,22545,6.13,73626.8,-4.55,-31.51,-30.23,0,*54
1513854332.89,22546,6.19,73626.5,-4.55,-31.95,-30.55,0,*5E
1513854334.14,22547,6.19,73622.8,-4.55,-31.79,-30.39,0,*57
1513854335.4,22548,6.19,73620.8,-4.51,-32.13,-30.73,0,*5D
1513854336.68,22549,6.19,73624.8,-4.55,-31.95,-30.55,0,*51
1513854337.93,22550,6.19,73624.8,-4.55,-32.01,-30.55,0,*57
1513854339.16,22551,6.19,73622.8,-4.57,-31.79,-30.39,0,*52
1513854340.4,22552,6.19,73624.3,-4.57,-31.85,-30.33,0,*58
1513854341.63,22553,6.19,73626.3,-4.57,-31.67,-30.17,0,*53
1513854342.9,22554,6.19,73624.8,-4.55,-31.51,-30.05,0,*50
1513854344.13,22555,6.19,73624.8,-4.57,-31.29,-29.89,0,*50
1513854345.38,22556,6.19,73624.3,-4.55,-31.45,-30.01,0,*53
1513854346.63,22557,6.19,73622.8,-4.55,-31.79,-30.39,0,*56
1513854347.89,22558,6.19,73624.3,-4.55,-31.61,-30.23,0,*5B
1513854349.11,22559,6.19,73620.3,-4.55,-31.67,-30.27,0,*58
1513854350.34,22560,6.19,73624.0,-4.57,-31.85,-30.33,0,*59
1513854351.6,22561,6.19,73626.8,-4.57,-31.85,-30.39,0,*52
1513854352.8,22562,6.19,73624.0,-4.57,-31.29,-29.83,0,*5E
1513854354.06,22563,6.19,73626.5,-4.57,-31.23,-29.73,0,*5A
1513854355.26,22564,6.19,73626.8,-4.57,-31.45,-29.83,0,*52
1513854356.52,22565,6.19,73628.3,-4.57,-31.39,-29.89,0,*52
1513854357.77,22566,6.19,73626.5,-4.55,-31.95,-30.45,0,*5D
1513854359.02,22567,6.19,73624.5,-4.55,-31.79,-30.05,0,*5A
1513854360.3,22568,6.19,73624.0,-4.55,-31.39,-29.89,0,*5D
1513854361.55,22569,6.19,73626.8,-4.55,-31.85,-30.23,0,*53
1513854362.78,22570,6.19,73620.5,-4.57,-32.01,-30.39,0,*5D
1513854364.01,22571,6.19,73624.5,-4.55,-31.45,-29.83,0,*54
1513854365.25,22572,6.19,73624.3,-4.57,-31.23,-29.57,0,*5C
1513854366.47,22573,6.19,73622.3,-4.57,-31.39,-29.67,0,*55
1513854367.7,22574,6.19,73622.5,-4.57,-31.05,-29.35,0,*5A
1513854368.94,22575,6.19,73624.8,-4.55,-30.89,-29.23,0,*5B
1513854370.23,22576,6.19,73626.3,-4.51,-31.23,-29.51,0,*58
1513854371.45,22577,6.19,73620.0,-4.51,-31.17,-29.45,0,*5B
1513854372.68,22578,6.19,73624.5,-4.51,-30.83,-29.07,0,*5E
1513854373.9,22579,6.19,73624.8,-4.51,-30.67,-28.97,0,*5D
1513854375.18,22580,6.19,73620.8,-4.55,-30.73,-29.01,0,*54
1513854376.4,22581,6.19,73622.8,-4.51,-30.67,-28.97,0,*5A
1513854377.63,22582,6.19,73626.5,-4.49,-30.73,-28.97,0,*55
1513854378.84,22583,6.19,73624.0,-4.49,-30.73,-29.07,0,*5C
1513854380.06,22584,6.19,73626.8,-4.49,-31.01,-29.13,0,*5A
1513854381.3,22585,6.19,73626.0,-4.49,-30.89,-29.13,0,*5A
1513854382.57,22586,6.19,73626.5,-4.47,-30.51,-28.75,0,*53
1513854383.79,22587,6.19,73628.8,-4.47,-30.45,-28.69,0,*5A
1513854385.06,22588,6.19,73626.5,-4.47,-30.77,-28.91,0,*53
1513854386.31,22589,6.19,73624.3,-4.47,-31.11,-29.23,0,*5B
1513854387.52,22590,6.19,73626.8,-4.47,-31.01,-29.23,0,*52
1513854388.76,22591,6.19,73630.8,-4.47,-31.01,-29.29,0,*59
1513854390.01,22592,6.19,73624.5,-4.43,-30.77,-28.97,0,*5A
1513854391.29,22593,6.19,73628.0,-4.43,-30.77,-29.01,0,*55
1513854392.48,22594,6.19,73626.0,-4.45,-31.05,-29.23,0,*50
1513854393.72,22595,6.19,73624.3,-4.43,-31.05,-29.17,0,*50
1513854394.95,22596,6.19,73624.0,-4.45,-31.11,-29.23,0,*57
1513854396.22,22597,6.19,73628.8,-4.43,-30.61,-28.79,0,*58
1513854397.47,22598,6.19,73628.0,-4.43,-30.27,-28.47,0,*58
1513854398.7,22599,6.19,73630.5,-4.43,-30.27,-28.53,0,*5C
1513854399.99,22600,6.19,73628.8,-4.43,-30.17,-28.21,0,*59
1513854401.24,22601,6.19,73628.0,-4.41,-30.17,-28.25,0,*5E
1513854402.52,22602,6.19,73628.0,-4.39,-30.51,-28.59,0,*5B
1513854403.79,22603,6.19,73624.3,-4.39,-30.55,-28.59,0,*5E
1513854405.01,22604,6.19,73622.8,-4.37,-30.61,-28.69,0,*53
1513854406.21,22605,6.19,73626.0,-4.37,-30.67,-28.69,0,*54
1513854407.46,22606,6.19,73620.3,-4.37,-30.95,-28.91,0,*5D
1513854408.65,22607,6.19,73626.5,-4.37,-31.01,-29.07,0,*5E
1513854409.87,22608,6.19,73620.8,-4.37,-31.17,-29.29,0,*5A
1513854411.13,22609,6.19,73622.3,-4.39,-31.45,-29.51,0,*5D
1513854412.37,22610,6.19,73620.8,-4.39,-31.29,-29.29,0,*50
1513854413.64,22611,6.19,73624.3,-4.39,-31.23,-29.29,0,*5B
1513854414.88,22612,6.19,73626.5,-4.39,-31.29,-29.29,0,*52
1513854416.15,22613,6.19,73622.3,-4.39,-31.23,-29.29,0,*59
1513854417.4,22614,6.19,73622.0,-4.39,-31.73,-29.61,0,*57
1513854418.65,22615,6.19,73626.0,-4.39,-31.91,-29.67,0,*5C
1513854419.88,22616,6.19,73622.8,-4.41,-31.73,-29.61,0,*5A
1513854421.11,22617,6.19,73626.0,-4.41,-31.73,-29.61,0,*5B
1513854422.34,22618,6.19,73626.5,-4.41,-31.73,-29.61,0,*54
1513854423.58,22619,6.19,73622.8,-4.41,-31.91,-29.67,0,*5F
1513854424.8,22620,6.19,73624.8,-4.45,-32.19,-29.95,0,*5F
1513854426.09,22621,6.19,73618.8,-4.43,-32.19,-29.89,0,*55
1513854427.32,22622,6.19,73626.0,-4.45,-32.19,-29.95,0,*5D
1513854428.56,22623,6.19,73628.8,-4.43,-31.67,-29.39,0,*56
1513854429.82,22624,6.19,73624.5,-4.47,-31.85,-29.57,0,*51
1513854431.07,22625,6.19,73630.5,-4.45,-31.57,-29.29,0,*54
1513854432.26,22626,6.19,73630.5,-4.45,-31.33,-29.23,0,*5F
1513854433.51,22627,6.19,73626.8,-4.45,-31.39,-29.13,0,*57
1513854434.74,22628,6.19,73624.3,-4.45,-31.85,-29.57,0,*5F
1513854435.96,22629,6.19,73624.5,-4.45,-31.39,-29.07,0,*5C
1513854437.19,22630,6.19,73624.5,-4.45,-31.29,-29.01,0,*53
1513854438.42,22631,6.19,73622.0,-4.45,-31.39,-28.85,0,*5E
1513854439.69,22632,6.19,73626.5,-4.47,-31.39,-29.01,0,*52
1513854440.92,22633,6.19,73624.3,-4.47,-31.29,-28.85,0,*5F
1513854442.19,22634,6.19,73626.0,-4.47,-31.39,-29.01,0,*54
1513854443.46,22635,6.19,73630.8,-4.47,-31.51,-29.13,0,*58
1513854444.73,22636,6.19,73628.3,-4.47,-31.85,-29.39,0,*5A
1513854445.93,22637,6.19,73624.3,-4.49,-32.13,-29.67,0,*52
1513854447.19,22638,6.19,73630.0,-4.49,-32.07,-29.51,0,*5D
1513854448.44,22639,6.19,73626.3,-4.49,-31.73,-29.17,0,*5E
1513854449.69,22640,6.19,73624.3,-4.49,-31.73,-29.17,0,*50
1513854450.98,22641,6.19,73626.0,-4.51,-31.95,-29.35,0,*50
1513854452.23,22642,6.19,73626.8,-4.51,-32.07,-29.45,0,*5C
1513854453.48,22643,6.19,73624.3,-4.51,-31.57,-29.07,0,*5D
1513854454.76,22644,6.19,73626.0,-4.51,-31.61,-28.91,0,*51
1513854456.04,22645,6.19,73624.3,-4.51,-31.95,-29.29,0,*59
1513854457.32,22646,6.19,73630.5,-4.51,-31.91,-29.35,0,*53
1513854458.59,22647,6.19,73622.5,-4.55,-32.45,-29.73,0,*5E
1513854459.81,22648,6.19,73624.3,-4.57,-32.29,-29.57,0,*5F
1513854461.04,22649,6.19,73622.5,-4.59,-32.23,-29.45,0,*59
1513854462.26,22650,6.19,73626.0,-4.55,-32.01,-29.23,0,*5D
1513854463.46,22651,6.19,73622.8,-4.57,-32.01,-29.23,0,*5E
1513854464.7,22652,6.19,73626.5,-4.59,-32.23,-29.39,0,*58
1513854465.95,22653,6.19,73624.5,-4.59,-32.01,-29.17,0,*55
1513854467.15,22654,6.19,73630.3,-4.61,-32.23,-29.45,0,*5E
1513854468.43,22655,6.19,73630.5,-4.63,-32.45,-29.51,0,*58
1513854469.67,22656,6.19,73628.3,-4.63,-32.23,-29.29,0,*54
1513854470.92,22657,6.19,73628.5,-4.63,-31.95,-29.07,0,*57
1513854472.16,22658,6.19,73624.8,-4.63,-32.23,-29.13,0,*53
1513854473.4,22659,6.19,73624.8,-4.63,-32.07,-29.07,0,*51
1513854474.63,22660,6.19,73624.8,-4.65,-31.95,-28.97,0,*5D
1513854475.83,22661,6.19,73626.0,-4.65,-32.23,-29.23,0,*5C
1513854477.05,22662,6.19,73626.8,-4.65,-32.29,-29.23,0,*55
1513854478.32,22663,6.19,73630.3,-4.67,-32.45,-29.29,0,*56
1513854479.59,22664,6.19,73630.5,-4.67,-32.45,-29.29,0,*51
1513854480.87,22665,6.19,73630.5,-4.69,-32.45,-29.17,0,*53
1513854482.11,22666,6.19,73630.3,-4.71,-32.45,-29.29,0,*54
1513854483.34,22667,6.19,73630.3,-4.69,-32.01,-28.85,0,*5B
1513854484.6,22668,6.19,73628.3,-4.73,-32.01,-28.91,0,*5A
1513854485.89,22669,6.19,73630.0,-4.73,-31.85,-28.59,0,*50
1513854487.14,22670,6.19,73630.5,-4.73,-32.01,-28.75,0,*59
1513854488.42,22671,6.19,73628.0,-4.77,-32.07,-28.75,0,*5A
1513854489.7,22672,6.19,73628.0,-4.73,-31.91,-28.59,0,*5F
1513854490.99,22673,6.19,73626.3,-4.77,-31.95,-28.63,0,*57
1513854492.27,22674,6.19,73622.5,-4.77,-31.91,-28.43,0,*56
1513854493.53,22675,6.19,73626.5,-4.77,-31.73,-28.37,0,*58
1513854494.79,22676,6.19,73624.8,-4.77,-32.23,-28.91,0,*51
1513854496.08,22677,6.19,73624.3,-4.77,-31.95,-28.59,0,*5A
1513854497.31,22678,6.19,73630.0,-4.79,-31.79,-28.25,0,*52
1513854498.57,22679,6.19,73628.8,-4.81,-31.79,-28.25,0,*54
1513854499.83,22680,6.19,73628.3,-4.81,-31.85,-28.31,0,*54
1513854501.07,22681,6.19,73630.0,-4.79,-31.85,-28.31,0,*52
1513854502.32,22682,6.19,73628.0,-4.81,-32.13,-28.43,0,*5F
1513854503.59,22683,6.19,73626.8,-4.81,-31.85,-28.31,0,*57
1513854504.82,22684,6.19,73626.8,-4.83,-31.67,-28.05,0,*59
1513854506.1,22685,6.19,73630.5,-4.85,-31.51,-28.05,0,*5B
1513854507.34,22686,6.19,73626.3,-4.83,-31.61,-27.89,0,*56